This demonstration page uses our WeatherBlox Daily Observations layout. Learn more.

38.88101, -77.10428

Hourly Observations for June 24, 2016

Temp ( °F °C ) Dew Point ( °F °C ) Humidity (%) Winds ( mph kmh ) Pressure ( in mb ) Visibility ( mi km ) Precip ( " mm )
12:52 am 00:52 Mostly Cloudy 75 23.9 68 20 79 79 WSW 5 7 29.87 1011 10 16.0934 0 0
1:52 am 01:52 Cloudy 74 23.3 68 20 82 82 WNW 3 6 29.88 1012 10 16.0934 0 0
2:52 am 02:52 Mostly Cloudy 72 22.2 68 20 87 87 SW 5 7 29.89 1012 10 16.0934 0 0
3:52 am 03:52 Partly Cloudy 72 22.2 68 20 87 87 WNW 6 9 29.91 1013 10 16.0934 0 0
4:52 am 04:52 Partly Cloudy 72 22.2 68 20 87 87 NW 6 9 29.91 1013 10 16.0934 0 0
5:52 am 05:52 Mostly Sunny 72 22.2 68 20 87 87 NNW 8 13 29.92 1013 10 16.0934 0 0
6:52 am 06:52 Mostly Sunny 73 22.8 68 20 84 84 N 6 9 29.93 1014 10 16.0934 0 0
7:52 am 07:52 Partly Cloudy 74 23.3 69 20.6 85 85 N 5 7 29.96 1014 10 16.0934 0 0
8:52 am 08:52 Mostly Cloudy 77 25 70 21.1 79 79 NE 5 7 29.97 1015 10 16.0934 0 0
9:52 am 09:52 Mostly Cloudy 77 25 69 20.6 77 77 Calm 29.98 1015 10 16.0934 0 0
10:24 am 10:24 Partly Cloudy 79 26 70 21 74 74 NE 3 6 29.97 1015 10 16.0934 0 0
10:52 am 10:52 Partly Cloudy 80 26.7 69 20.6 69 69 ENE 5 7 29.98 1015 10 16.0934 0 0
11:52 am 11:52 Mostly Cloudy 83 28.3 70 21.1 65 65 VRB 5 7 29.98 1015 10 16.0934 0 0
12:52 pm 12:52 Mostly Cloudy 84 28.9 70 21.1 63 63 NE 6 9 29.98 1015 10 16.0934 0 0
1:52 pm 13:52 Mostly Cloudy 83 28.3 69 20.6 63 63 NE 5 7 29.97 1015 10 16.0934 0 0
2:52 pm 14:52 Mostly Cloudy 84 28.9 69 20.6 61 61 NNE 5 7 29.96 1015 10 16.0934 0 0
3:44 pm 15:44 Mostly Cloudy 86 30 70 21 59 59 N 3 6 29.97 1015 10 16.0934 0 0
3:52 pm 15:52 Mostly Cloudy 84 28.9 70 21.1 63 63 NNE 13 20 29.96 1015 10 16.0934 0 0
4:23 pm 16:23 Mostly Cloudy 83 28.3 72 22.2 70 70 NE 12 19 29.97 1015 10 16.0934 0 0
4:52 pm 16:52 Mostly Cloudy 84 28.9 71 21.7 65 65 ENE 12 19 29.97 1015 10 16.0934 0 0
5:52 pm 17:52 Mostly Cloudy 81 27.2 69 20.6 67 67 E 13 20 29.98 1015 10 16.0934 0 0
6:52 pm 18:52 Cloudy 79 26.1 69 20.6 72 72 ENE 18 30 29.99 1016 10 16.0934 0 0
7:01 pm 19:01 Cloudy 79 26.1 69 20.6 72 72 ENE 15 24 30 1016 10 16.0934 0 0
7:52 pm 19:52 Cloudy 76 24.4 68 20 77 77 ENE 14 22 30.01 1016 10 16.0934 0 0
7:54 pm 19:54 Cloudy 75 24 68 20 78 78 NE 12 19 30 1016 10 16.0934 0 0
8:52 pm 20:52 Cloudy 76 24.4 68 20 77 77 ENE 10 17 30.02 1017 10 16.0934 0 0
9:52 pm 21:52 Cloudy 75 23.9 68 20 79 79 ENE 10 17 30.05 1018 10 16.0934 0 0
10:52 pm 22:52 Cloudy 74 23.3 67 19.4 79 79 ENE 10 17 30.07 1018 10 16.0934 0 0
11:52 pm 23:52 Cloudy 73 22.8 67 19.4 81 81 ENE 12 19 30.07 1018 10 16.0934 0 0

Powered by AerisWeather